| time (UTC) | temp F | wind direction | speed MPH | gust MPH | rain 1hr in | rain 24hr in | rain mn in | humidity % | barometer mb |
| 20260509031504 | 53 | 310 | 0.0 | 0.0 | 0.00 | 0.09 | 0.09 | 93 | 1006.0 |
| 20260509030000 | 54 | 310 | 0.0 | 0.0 | 0.00 | 0.09 | 0.09 | 92 | 1005.9 |
| 20260509024559 | 54 | 310 | 0.0 | 0.0 | 0.00 | 0.09 | 0.09 | 92 | 1005.5 |
| 20260509023105 | 55 | 310 | 0.0 | 0.0 | 0.00 | 0.09 | 0.09 | 92 | 1005.4 |
| 20260509021556 | 56 | 310 | 0.0 | 0.0 | 0.00 | 0.09 | 0.09 | 91 | 1005.3 |
| 20260509020055 | 57 | 310 | 0.0 | 0.0 | 0.00 | 0.09 | 0.09 | 90 | 1005.2 |
| 20260509014555 | 58 | 310 | 0.0 | 1.0 | 0.00 | 0.09 | 0.09 | 90 | 1005.0 |
| 20260509013102 | 59 | 308 | 0.0 | 2.0 | 0.00 | 0.09 | 0.09 | 87 | 1004.8 |
| 20260509011554 | 61 | 291 | 0.0 | 0.0 | 0.00 | 0.09 | 0.09 | 85 | 1004.7 |
| 20260509010053 | 63 | 285 | 0.0 | 0.0 | 0.00 | 0.09 | 0.09 | 83 | 1004.7 |
| 20260509004559 | 64 | 273 | 0.0 | 0.0 | 0.00 | 0.09 | 0.09 | 80 | 1004.6 |
| 20260509003053 | 65 | 359 | 0.0 | 0.0 | 0.00 | 0.09 | 0.09 | 77 | 1004.5 |
| 20260509001552 | 66 | 359 | 0.0 | 4.0 | 0.00 | 0.09 | 0.09 | 76 | 1004.3 |
| 20260509000051 | 66 | 359 | 3.0 | 6.0 | 0.00 | 0.09 | 0.09 | 75 | 1004.3 |
| 20260508234551 | 66 | 274 | 1.0 | 3.0 | 0.00 | 0.09 | 0.09 | 76 | 1004.1 |
| 20260508233101 | 66 | 276 | 2.0 | 5.0 | 0.00 | 0.09 | 0.09 | 76 | 1004.3 |
| 20260508231551 | 66 | 359 | 1.0 | 4.0 | 0.00 | 0.09 | 0.09 | 81 | 1004.6 |
| 20260508230053 | 65 | 359 | 2.0 | 6.0 | 0.00 | 0.09 | 0.09 | 81 | 1004.7 |
| 20260508224542 | 64 | 10 | 1.0 | 3.0 | 0.00 | 0.09 | 0.09 | 86 | 1004.5 |
| 20260508223040 | 62 | 17 | 0.0 | 3.0 | 0.00 | 0.09 | 0.09 | 88 | 1004.5 |
| 20260508221539 | 61 | 18 | 1.0 | 4.0 | 0.00 | 0.09 | 0.09 | 91 | 1004.5 |
| 20260508220038 | 60 | 21 | 0.0 | 3.0 | 0.01 | 0.09 | 0.09 | 93 | 1004.5 |
| 20260508214539 | 59 | 23 | 3.0 | 7.0 | 0.03 | 0.09 | 0.09 | 92 | 1004.1 |
| 20260508213036 | 59 | 18 | 2.0 | 4.0 | 0.06 | 0.09 | 0.09 | 91 | 1005.0 |
| 20260508211536 | 60 | 359 | 0.0 | 2.0 | 0.06 | 0.09 | 0.09 | 91 | 1005.3 |
| 20260508210031 | 60 | 71 | 0.0 | 2.0 | 0.06 | 0.08 | 0.08 | 90 | 1006.0 |
| 20260508204530 | 60 | 72 | 0.0 | 2.0 | 0.05 | 0.05 | 0.05 | 89 | 1006.1 |
| 20260508203029 | 60 | 66 | 1.0 | 7.0 | 0.03 | 0.03 | 0.03 | 88 | 1006.1 |
| 20260508201529 | 61 | 73 | 3.0 | 5.0 | 0.03 | 0.03 | 0.03 | 87 | 1006.2 |
| 20260508200030 | 61 | 16 | 0.0 | 2.0 | 0.02 | 0.02 | 0.02 | 85 | 1006.4 |
| 20260508194526 | 62 | 23 | 0.0 | 2.0 | 0.00 | 0.00 | 0.00 | 83 | 1006.1 |
| 20260508193026 | 62 | 25 | 0.0 | 2.0 | 0.00 | 0.00 | 0.00 | 82 | 1006.4 |
| 20260508191534 | 62 | 24 | 0.0 | 3.0 | 0.00 | 0.00 | 0.00 | 82 | 1006.0 |
| 20260508190024 | 62 | 25 | 1.0 | 3.0 | 0.00 | 0.00 | 0.00 | 79 | 1006.1 |
| 20260508184526 | 62 | 27 | 0.0 | 3.0 | 0.00 | 0.00 | 0.00 | 76 | 1005.8 |
| 20260508183023 | 63 | 26 | 1.0 | 3.0 | 0.00 | 0.00 | 0.00 | 75 | 1005.8 |
| 20260508181523 | 63 | 33 | 0.0 | 4.0 | 0.00 | 0.00 | 0.00 | 74 | 1006.2 |
| 20260508180022 | 63 | 39 | 1.0 | 5.0 | 0.00 | 0.00 | 0.00 | 73 | 1006.2 |
| 20260508174527 | 62 | 23 | 1.0 | 4.0 | 0.00 | 0.00 | 0.00 | 74 | 1006.1 |
| 20260508173021 | 62 | 4 | 2.0 | 5.0 | 0.00 | 0.00 | 0.00 | 73 | 1005.6 |
| 20260508171526 | 63 | 9 | 1.0 | 4.0 | 0.00 | 0.00 | 0.00 | 72 | 1006.1 |
| 20260508170020 | 63 | 8 | 2.0 | 6.0 | 0.00 | 0.00 | 0.00 | 70 | 1006.2 |
| 20260508164518 | 63 | 13 | 2.0 | 5.0 | 0.00 | 0.00 | 0.00 | 69 | 1006.6 |
| 20260508163017 | 62 | 56 | 1.0 | 10.0 | 0.00 | 0.00 | 0.00 | 71 | 1007.6 |
| 20260508161515 | 62 | 64 | 2.0 | 8.0 | 0.00 | 0.00 | 0.00 | 73 | 1007.0 |
| 20260508160016 | 61 | 67 | 3.0 | 7.0 | 0.00 | 0.00 | 0.00 | 72 | 1006.8 |
| 20260508154511 | 61 | 48 | 0.0 | 7.0 | 0.00 | 0.00 | 0.00 | 73 | 1006.5 |
| 20260508153013 | 61 | 36 | 0.0 | 5.0 | 0.00 | 0.00 | 0.00 | 74 | 1006.3 |
| 20260508151511 | 60 | 40 | 1.0 | 5.0 | 0.00 | 0.00 | 0.00 | 75 | 1006.4 |
| 20260508150010 | 61 | 10 | 2.0 | 5.0 | 0.00 | 0.00 | 0.00 | 73 | 1006.5 |
| 20260508144510 | 61 | 35 | 1.0 | 8.0 | 0.00 | 0.00 | 0.00 | 70 | 1006.5 |
| 20260508143008 | 61 | 16 | 2.0 | 8.0 | 0.00 | 0.00 | 0.00 | 70 | 1006.4 |
| 20260508141516 | 60 | 19 | 1.0 | 8.0 | 0.00 | 0.00 | 0.00 | 72 | 1006.5 |
| 20260508140017 | 59 | 12 | 2.0 | 4.0 | 0.00 | 0.00 | 0.00 | 76 | 1006.9 |
| 20260508134508 | 58 | 25 | 0.0 | 2.0 | 0.00 | 0.00 | 0.00 | 80 | 1007.0 |
| 20260508133007 | 57 | 23 | 0.0 | 2.0 | 0.00 | 0.00 | 0.00 | 81 | 1006.7 |
| 20260508131506 | 56 | 25 | 0.0 | 2.0 | 0.00 | 0.00 | 0.00 | 83 | 1006.5 |
| 20260508130006 | 55 | 12 | 0.0 | 5.0 | 0.00 | 0.00 | 0.00 | 84 | 1006.3 |
| 20260508124504 | 56 | 24 | 2.0 | 4.0 | 0.00 | 0.00 | 0.00 | 83 | 1005.8 |
| 20260508123004 | 56 | 21 | 0.0 | 1.0 | 0.00 | 0.00 | 0.00 | 81 | 1006.8 |
| 20260508121502 | 56 | 23 | 0.0 | 1.0 | 0.00 | 0.00 | 0.00 | 79 | 1006.3 |
| 20260508114559 | 57 | 19 | 0.0 | 1.0 | 0.00 | 0.00 | 0.00 | 75 | 1006.6 |
| 20260508113106 | 57 | 20 | 1.0 | 3.0 | 0.00 | 0.00 | 0.00 | 71 | 1006.5 |
| 20260508111610 | 58 | 20 | 0.0 | 2.0 | 0.00 | 0.00 | 0.00 | 71 | 1006.4 |
| 20260508110059 | 58 | 21 | 1.0 | 4.0 | 0.00 | 0.00 | 0.00 | 68 | 1006.4 |
| 20260508104604 | 58 | 17 | 1.0 | 6.0 | 0.00 | 0.00 | 0.00 | 68 | 1005.7 |
| 20260508103057 | 58 | 18 | 3.0 | 7.0 | 0.00 | 0.00 | 0.00 | 70 | 1005.7 |
| 20260508101557 | 56 | 19 | 1.0 | 3.0 | 0.00 | 0.00 | 0.00 | 73 | 1005.6 |
| 20260508100055 | 56 | 18 | 0.0 | 3.0 | 0.00 | 0.00 | 0.00 | 74 | 1005.6 |
| 20260508094554 | 56 | 18 | 0.0 | 2.0 | 0.00 | 0.00 | 0.00 | 73 | 1005.7 |
| 20260508093055 | 57 | 19 | 0.0 | 0.0 | 0.00 | 0.00 | 0.00 | 71 | 1005.6 |
| 20260508091557 | 57 | 20 | 0.0 | 3.0 | 0.00 | 0.00 | 0.00 | 69 | 1005.9 |
| 20260508090059 | 58 | 16 | 0.0 | 4.0 | 0.00 | 0.00 | 0.00 | 67 | 1005.8 |
| 20260508084548 | 58 | 20 | 1.0 | 6.0 | 0.00 | 0.00 | 0.00 | 66 | 1005.8 |
| 20260508083046 | 58 | 24 | 0.0 | 4.0 | 0.00 | 0.00 | 0.00 | 66 | 1005.7 |
| 20260508081553 | 58 | 26 | 0.0 | 7.0 | 0.00 | 0.00 | 0.00 | 67 | 1005.9 |
| 20260508080052 | 58 | 18 | 2.0 | 7.0 | 0.00 | 0.00 | 0.00 | 67 | 1005.8 |
| 20260508074542 | 58 | 16 | 3.0 | 8.0 | 0.00 | 0.00 | 0.00 | 67 | 1006.1 |
| 20260508073046 | 58 | 16 | 2.0 | 7.0 | 0.00 | 0.00 | 0.00 | 67 | 1006.4 |
| 20260508071554 | 58 | 14 | 2.0 | 6.0 | 0.00 | 0.00 | 0.00 | 66 | 1006.7 |
| 20260508070051 | 58 | 12 | 1.0 | 5.0 | 0.00 | 0.00 | 0.00 | 66 | 1006.8 |
| 20260508064536 | 59 | 16 | 1.0 | 6.0 | 0.00 | 0.00 | 0.00 | 65 | 1006.9 |
| 20260508063031 | 59 | 21 | 2.0 | 8.0 | 0.00 | 0.00 | 0.00 | 64 | 1007.2 |
| 20260508061531 | 59 | 18 | 1.0 | 8.0 | 0.00 | 0.00 | 0.00 | 64 | 1007.4 |
| 20260508060034 | 60 | 10 | 3.0 | 9.0 | 0.00 | 0.00 | 0.00 | 63 | 1007.4 |
| 20260508054531 | 60 | 21 | 2.0 | 12.0 | 0.00 | 0.00 | 0.00 | 63 | 1007.4 |
| 20260508053025 | 61 | 19 | 3.0 | 9.0 | 0.00 | 0.00 | 0.00 | 62 | 1007.4 |
| 20260508051522 | 61 | 17 | 3.0 | 12.0 | 0.00 | 0.00 | 0.00 | 61 | 1007.3 |
| 20260508050021 | 61 | 18 | 4.0 | 12.0 | 0.00 | 0.00 | 0.00 | 61 | 1007.4 |
| 20260508044521 | 62 | 18 | 3.0 | 11.0 | 0.00 | 0.00 | 0.00 | 60 | 1007.5 |
| 20260508043021 | 62 | 18 | 3.0 | 11.0 | 0.00 | 0.00 | 0.00 | 59 | 1007.5 |
| 20260508041520 | 62 | 14 | 2.0 | 8.0 | 0.00 | 0.00 | 0.00 | 59 | 1007.7 |
| 20260508040028 | 63 | 20 | 1.0 | 10.0 | 0.00 | 0.00 | 0.00 | 58 | 1007.6 |
| 20260508034520 | 63 | 17 | 4.0 | 9.0 | 0.00 | 0.00 | 0.00 | 58 | 1007.6 |
| 20260508033020 | 63 | 19 | 2.0 | 7.0 | 0.00 | 0.00 | 0.00 | 57 | 1007.6 |